This demonstration page uses our WeatherBlox Daily Observations layout. Learn more.

Left ArrowRight Arrow

38.80484, -77.04692

Hourly Observations for November 19, 2020

Temp ( °F °C ) Dew Point ( °F °C ) Humidity (%) Winds ( mph kmh ) Pressure ( in mb ) Visibility ( mi km ) Precip ( " mm )
12:52 am 00:52 Mostly Clear 34 1.1 26 -3.3 73 73 WSW 3 6 30.62 1037 10 16.0934 0 0
1:52 am 01:52 Mostly Clear 34 1.1 25 -3.9 70 70 W 3 6 30.62 1037 10 16.0934 0 0
2:52 am 02:52 Mostly Clear 34 1.1 27 -2.8 76 76 SW 3 6 30.63 1037 10 16.0934 0 0
3:52 am 03:52 Mostly Clear 33 0.6 25 -3.9 72 72 S 6 9 30.63 1037 10 16.0934 0 0
4:52 am 04:52 Mostly Clear 34 1.1 26 -3.3 73 73 SSW 3 6 30.63 1037 10 16.0934 0 0
5:52 am 05:52 Mostly Clear 32 0 25 -3.9 75 75 SW 5 7 30.63 1037 10 16.0934 0 0
6:52 am 06:52 Partly Cloudy 33 0.6 27 -2.8 78 78 WSW 5 7 30.63 1037 10 16.0934 0 0
7:52 am 07:52 Partly Cloudy 35 1.7 30 -1.1 82 82 SW 6 9 30.64 1038 10 16.0934 0 0
8:52 am 08:52 Mostly Cloudy 39 3.9 32 0 76 76 S 9 15 30.64 1038 10 16.0934 0 0
9:52 am 09:52 Mostly Cloudy 43 6.1 30 -1.1 60 60 S 14 22 30.63 1037 10 16.0934 0 0
10:52 am 10:52 Mostly Cloudy 46 7.8 26 -3.3 46 46 SSW 18 30 30.61 1037 10 16.0934 0 0
11:52 am 11:52 Mostly Cloudy 50 10 26 -3.3 39 39 S 16 26 30.58 1036 10 16.0934 0 0
12:52 pm 12:52 Mostly Cloudy 51 10.6 29 -1.7 43 43 S 14 22 30.54 1034 10 16.0934 0 0
1:52 pm 13:52 Mostly Cloudy 52 11.1 31 -0.6 45 45 S 13 20 30.51 1033 10 16.0934 0 0
2:52 pm 14:52 Mostly Cloudy 51 10.6 31 -0.6 46 46 S 16 26 30.5 1033 10 16.0934 0 0
3:52 pm 15:52 Mostly Cloudy 52 11.1 33 0.6 49 49 S 13 20 30.49 1032 10 16.0934 0 0
4:52 pm 16:52 Mostly Cloudy 51 10.6 29 -1.7 43 43 S 10 17 30.47 1032 10 16.0934 0 0
5:52 pm 17:52 Partly Cloudy 50 10 29 -1.7 44 44 S 12 19 30.47 1032 10 16.0934 0 0
6:52 pm 18:52 Mostly Clear 48 8.9 31 -0.6 52 52 SSW 9 15 30.48 1032 10 16.0934 0 0
7:52 pm 19:52 Partly Cloudy 49 9.4 29 -1.7 46 46 S 13 20 30.46 1032 10 16.0934 0 0
8:52 pm 20:52 Partly Cloudy 49 9.4 30 -1.1 48 48 S 13 20 30.45 1031 10 16.0934 0 0
9:52 pm 21:52 Mostly Clear 47 8.3 30 -1.1 52 52 S 12 19 30.44 1031 10 16.0934 0 0
10:52 pm 22:52 Mostly Cloudy 47 8.3 31 -0.6 54 54 S 10 17 30.43 1030 10 16.0934 0 0
11:52 pm 23:52 Mostly Cloudy 48 8.9 32 0 54 54 S 13 20 30.42 1030 10 16.0934 0 0

Powered by AerisWeather